CW1323 Weather Reports


time (UTC)temp
F
wind
direction
speed
knots
gust
knots
rain 1hr
in
rain 24hr
in
rain mn
in
humidity
%
barometer
mb
20260510045033 51 352 1.7 1.7 0.00 0.07 0.00 93 1010.4
20260510044531 51 352 1.7 1.7 0.00 0.07 0.00 93 1010.3
20260510044029 51 352 0.0 1.7 0.00 0.07 0.00 93 1010.4
20260510043526 51 352 0.0 1.7 0.00 0.07 0.00 92 1010.3
20260510043025 51 352 0.0 0.0 0.00 0.07 0.00 92 1010.4
20260510042522 51 352 0.0 1.7 0.00 0.07 0.00 92 1010.4
20260510042019 52 352 0.0 1.7 0.00 0.07 0.00 92 1010.4
20260510041517 52 352 0.0 1.7 0.00 0.07 0.00 92 1010.3
20260510041035 52 352 0.0 1.7 0.00 0.07 0.00 92 1010.3
20260510040533 52 352 0.0 0.9 0.00 0.07 0.00 92 1010.4
20260510040031 52 352 0.0 1.7 0.00 0.07 0.00 91 1010.3
20260510035527 53 352 0.9 1.7 0.00 0.07 0.07 92 1010.4
20260510035025 53 352 0.9 1.7 0.00 0.07 0.07 91 1010.4
20260510034523 53 352 0.0 1.7 0.00 0.07 0.07 91 1010.4
20260510034022 53 352 0.0 1.7 0.00 0.07 0.07 91 1010.4
20260510033519 53 352 0.0 1.7 0.00 0.07 0.07 91 1010.4
20260510033017 54 352 0.9 1.7 0.00 0.07 0.07 91 1010.3
20260510032535 53 352 0.0 0.9 0.00 0.07 0.07 90 1010.3
20260510032032 54 352 0.0 1.7 0.00 0.07 0.07 91 1010.3
20260510031531 54 352 0.0 1.7 0.00 0.07 0.07 91 1010.4
20260510031027 54 352 0.9 4.3 0.00 0.07 0.07 90 1010.4
20260510030546 54 352 0.9 4.3 0.00 0.07 0.07 90 1010.4
20260510030022 54 352 0.9 3.5 0.00 0.07 0.07 90 1010.4
20260510025520 54 352 1.7 2.6 0.00 0.07 0.07 89 1010.4
20260510025017 55 352 0.0 1.7 0.00 0.07 0.07 89 1010.4
20260510024516 55 352 0.0 1.7 0.00 0.07 0.07 89 1010.4
20260510024033 55 352 0.9 1.7 0.00 0.07 0.07 89 1010.4
20260510023530 55 352 0.0 1.7 0.00 0.07 0.07 88 1010.3
20260510023028 56 352 0.9 1.7 0.00 0.07 0.07 88 1010.3
20260510022526 56 352 0.9 1.7 0.00 0.07 0.07 87 1010.3
20260510022023 56 352 0.0 1.7 0.00 0.07 0.07 87 1010.2
20260510021522 57 352 0.9 1.7 0.00 0.07 0.07 86 1010.2
20260510021018 57 352 0.9 1.7 0.00 0.07 0.07 86 1010.1
20260510020516 57 352 0.9 4.3 0.00 0.07 0.07 86 1010.0
20260510020034 57 352 1.7 4.3 0.00 0.07 0.07 86 1009.8
20260510015531 57 352 0.9 3.5 0.00 0.07 0.07 85 1009.6
20260510015051 58 352 0.9 4.3 0.00 0.07 0.07 85 1009.7
20260510014528 58 352 0.9 4.3 0.00 0.07 0.07 84 1009.7
20260510014025 58 352 2.6 4.3 0.00 0.07 0.07 84 1009.7
20260510013522 58 352 1.7 5.2 0.00 0.07 0.07 84 1009.6
20260510013019 58 352 2.6 5.2 0.00 0.07 0.07 83 1009.5
20260510012640 59 352 2.6 5.2 0.00 0.07 0.07 83 1009.4
20260510012024 59 352 1.7 2.6 0.00 0.07 0.07 83 1009.2
20260510011522 58 352 0.0 3.5 0.00 0.07 0.07 82 1009.1
20260510011020 58 352 0.9 3.5 0.00 0.07 0.07 83 1009.1
20260510010517 58 352 0.0 1.7 0.00 0.07 0.07 82 1009.0
20260510010036 59 352 0.0 0.9 0.00 0.07 0.07 82 1009.0
20260510005533 59 352 0.0 4.3 0.00 0.07 0.07 80 1008.8
20260510005052 60 352 0.9 4.3 0.00 0.07 0.07 80 1008.8
20260510004529 60 352 0.9 4.3 0.00 0.07 0.07 79 1008.7
20260510004026 60 352 2.6 4.3 0.00 0.07 0.07 79 1008.7
20260510003522 60 352 0.0 0.0 0.00 0.07 0.07 79 1008.6
20260510003020 60 352 0.0 0.0 0.00 0.07 0.07 78 1008.6
20260510002517 61 352 0.0 1.7 0.00 0.07 0.07 77 1008.5
20260510002035 61 352 0.0 1.7 0.00 0.07 0.07 76 1008.4
20260510001555 62 352 0.0 1.7 0.00 0.07 0.07 75 1008.4
20260510001053 62 352 0.9 1.7 0.00 0.07 0.07 75 1008.5
20260510000530 62 352 0.9 1.7 0.00 0.07 0.07 74 1008.5
20260510000028 63 352 0.0 1.7 0.00 0.07 0.07 73 1008.6
20260509235526 64 352 0.0 1.7 0.00 0.07 0.07 73 1008.5
20260509235022 64 352 0.9 1.7 0.00 0.07 0.07 71 1008.4
20260509234520 64 352 0.9 2.6 0.00 0.07 0.07 71 1008.4
20260509234017 64 352 0.9 6.1 0.00 0.07 0.07 71 1008.4
20260509233531 65 352 1.7 6.1 0.00 0.07 0.07 70 1008.4
20260509233049 65 353 2.6 5.2 0.00 0.07 0.07 70 1008.3
20260509232526 65 353 2.6 5.2 0.00 0.07 0.07 69 1008.4
20260509232023 65 353 1.7 4.3 0.00 0.07 0.07 69 1008.5
20260509231521 65 353 1.7 4.3 0.00 0.07 0.07 69 1008.5
20260509231019 65 353 2.6 5.2 0.00 0.07 0.07 69 1008.3
20260509230538 66 353 3.5 5.2 0.00 0.07 0.07 69 1008.4
20260509230034 65 353 0.9 3.5 0.00 0.07 0.07 69 1008.4
20260509225532 65 353 0.9 5.2 0.00 0.07 0.07 69 1008.4
20260509225031 65 353 2.6 6.1 0.00 0.07 0.07 70 1008.6
20260509224527 66 353 3.5 6.1 0.00 0.07 0.07 68 1008.7
20260509224045 66 353 4.3 6.1 0.00 0.07 0.07 67 1008.6
20260509223521 66 353 3.5 7.8 0.00 0.07 0.07 67 1008.6
20260509223019 66 353 5.2 7.8 0.00 0.07 0.07 68 1008.6
20260509222518 66 5 4.3 10.4 0.00 0.07 0.07 67 1008.7
20260509222036 66 344 6.1 11.3 0.00 0.07 0.07 69 1008.7
20260509221554 67 352 7.0 11.3 0.00 0.07 0.07 67 1008.6
20260509221030 67 300 5.2 7.8 0.00 0.07 0.07 65 1008.6
20260509220549 67 360 2.6 7.8 0.00 0.07 0.07 62 1008.6
20260509220046 67 341 4.3 7.8 0.00 0.07 0.07 64 1008.5
20260509215523 67 305 2.6 8.7 0.00 0.07 0.07 65 1008.4
20260509215021 67 304 5.2 8.7 0.00 0.07 0.07 66 1008.5
20260509214518 67 356 5.2 7.8 0.00 0.07 0.07 65 1008.4
20260509214017 67 348 2.6 7.0 0.00 0.07 0.07 63 1008.5
20260509213534 67 348 5.2 7.8 0.00 0.07 0.07 63 1008.5
20260509213029 67 348 4.3 7.8 0.00 0.07 0.07 64 1008.3
20260509212548 67 5 3.5 8.7 0.00 0.07 0.07 64 1008.4
20260509212024 67 5 4.3 8.7 0.00 0.07 0.07 64 1008.6
20260509211522 67 352 4.3 8.7 0.00 0.07 0.07 66 1008.6
20260509211020 67 337 5.2 9.6 0.00 0.07 0.07 65 1008.6
20260509210538 67 61 6.1 10.4 0.00 0.07 0.07 66 1008.7
20260509210035 67 5 6.1 10.4 0.00 0.07 0.07 62 1008.7
20260509205532 67 65 2.6 7.8 0.00 0.07 0.07 62 1008.8
20260509205030 66 327 5.2 7.8 0.00 0.07 0.07 64 1008.9
20260509204528 67 254 3.5 7.0 0.00 0.07 0.07 61 1008.9
20260509204026 67 188 0.9 3.5 0.00 0.07 0.07 57 1009.0
20260509203523 67 188 1.7 4.3 0.00 0.07 0.07 55 1009.0
20260509203021 67 188 1.7 5.2 0.00 0.07 0.07 56 1009.0
20260509202517 67 188 2.6 6.1 0.00 0.07 0.07 56 1008.9
20260509202031 67 188 2.6 6.1 0.00 0.07 0.07 58 1008.9
20260509201529 66 188 0.0 6.1 0.00 0.07 0.07 59 1009.0
20260509201027 66 188 4.3 7.0 0.00 0.07 0.07 58 1009.0
20260509200524 66 187 2.6 7.0 0.00 0.07 0.07 58 1009.0
20260509200022 66 199 3.5 5.2 0.00 0.07 0.07 59 1009.0
20260509195516 66 199 1.7 4.3 0.00 0.07 0.07 60 1009.0
20260509195034 66 199 0.9 6.1 0.00 0.07 0.07 60 1009.1
20260509194553 66 199 2.6 6.1 0.00 0.07 0.07 62 1009.0
20260509194029 66 315 3.5 6.1 0.00 0.07 0.07 61 1009.0
20260509193527 66 315 2.6 5.2 0.00 0.07 0.07 62 1009.0
20260509193046 66 315 0.9 4.3 0.00 0.07 0.07 60 1009.0
20260509192524 67 315 1.7 5.2 0.00 0.07 0.07 59 1009.1
20260509192021 67 315 2.6 5.2 0.00 0.07 0.07 62 1009.1
20260509191518 67 48 3.5 9.6 0.00 0.07 0.07 59 1008.9
20260509191016 67 75 5.2 9.6 0.00 0.07 0.07 61 1009.0
20260509190553 65 284 0.9 5.2 0.00 0.07 0.07 62 1009.0
20260509190030 65 284 0.9 6.1 0.00 0.07 0.07 63 1009.1
20260509185528 66 284 4.3 6.1 0.00 0.07 0.07 64 1009.1
20260509185046 65 46 1.7 6.1 0.00 0.07 0.07 62 1009.2
20260509184523 67 47 2.6 6.1 0.00 0.07 0.07 64 1009.2
20260509184020 66 48 0.9 6.1 0.00 0.07 0.07 66 1009.5
20260509183518 66 48 3.5 6.1 0.00 0.07 0.07 66 1009.3
20260509183016 64 48 2.6 7.0 0.00 0.07 0.07 67 1009.5
20260509182533 64 50 4.3 7.0 0.00 0.07 0.07 66 1009.7
20260509182031 65 50 4.3 6.1 0.00 0.07 0.07 67 1009.7
20260509181550 64 88 3.5 5.2 0.00 0.07 0.07 68 1009.7
20260509181026 63 88 3.5 8.7 0.00 0.07 0.07 69 1009.8
20260509180523 63 88 5.2 9.6 0.00 0.07 0.07 69 1009.9
20260509180020 62 59 3.5 7.8 0.00 0.07 0.07 70 1010.0
20260509175518 62 171 3.5 6.1 0.00 0.07 0.07 72 1010.3
20260509175035 62 171 1.7 6.1 0.00 0.07 0.07 71 1010.6
20260509174533 62 170 1.7 5.2 0.00 0.07 0.07 72 1010.6
20260509174031 62 179 3.5 5.2 0.00 0.07 0.07 74 1010.7
20260509173528 61 179 0.9 7.0 0.00 0.07 0.07 73 1010.7
20260509173026 61 179 4.3 7.0 0.00 0.07 0.07 74 1010.7
20260509172522 60 34 1.7 6.1 0.00 0.07 0.07 72 1010.9
20260509172020 60 34 2.6 6.1 0.00 0.07 0.07 76 1010.9
20260509171518 60 34 1.7 4.3 0.00 0.07 0.07 74 1011.0
20260509171015 59 34 0.9 4.3 0.00 0.07 0.07 77 1011.1
20260509170534 59 34 1.7 5.2 0.00 0.07 0.07 78 1011.0
20260509170031 59 34 3.5 6.1 0.00 0.07 0.07 77 1011.1
20260509165545 59 34 3.5 6.1 0.00 0.07 0.07 78 1011.1
20260509165020 58 41 2.6 6.1 0.00 0.07 0.07 77 1011.0
20260509164518 59 150 1.7 5.2 0.00 0.07 0.07 77 1011.0
20260509164016 59 150 1.7 5.2 0.00 0.07 0.07 77 1011.0
20260509163533 58 150 0.0 3.5 0.00 0.07 0.07 76 1010.9
20260509163030 58 150 0.0 5.2 0.00 0.07 0.07 77 1011.0
20260509162528 58 150 0.9 5.2 0.00 0.07 0.07 79 1011.0
20260509162024 58 150 1.7 4.3 0.00 0.07 0.07 79 1011.1
20260509161543 58 150 2.6 5.2 0.00 0.07 0.07 79 1011.3
20260509161041 58 150 2.6 5.2 0.00 0.07 0.07 79 1011.2
20260509160539 58 150 0.0 6.1 0.00 0.07 0.07 80 1011.2
20260509160016 58 150 0.9 6.1 0.00 0.07 0.07 81 1011.1
20260509155534 58 152 2.6 5.2 0.00 0.07 0.07 80 1011.2
20260509155031 58 162 2.6 5.2 0.00 0.07 0.07 80 1011.2
20260509154530 58 92 1.7 5.2 0.00 0.07 0.07 79 1011.1
20260509154027 58 92 1.7 6.1 0.00 0.07 0.07 82 1011.1
20260509153525 58 92 2.6 6.1 0.00 0.07 0.07 80 1011.2
20260509153044 57 92 2.6 7.0 0.00 0.07 0.07 81 1011.2
20260509152541 57 92 3.5 6.1 0.00 0.07 0.07 81 1011.1
20260509152018 57 92 3.5 9.6 0.00 0.07 0.07 83 1011.2
20260509151516 57 93 3.5 9.6 0.00 0.07 0.07 83 1011.2
20260509151033 57 54 3.5 6.1 0.00 0.07 0.07 87 1011.2
20260509150532 56 54 1.7 6.1 0.01 0.07 0.07 87 1011.2
20260509150027 56 54 5.2 6.1 0.01 0.07 0.07 88 1011.2
20260509145524 56 54 2.6 5.2 0.01 0.08 0.07 89 1011.2
20260509145021 55 54 2.6 6.1 0.01 0.08 0.07 90 1011.4
20260509144518 55 54 3.5 6.1 0.01 0.08 0.07 90 1011.2
20260509144016 55 55 4.3 6.1 0.01 0.08 0.07 89 1011.3
20260509143532 55 55 2.6 5.2 0.02 0.08 0.07 89 1011.2
20260509143051 54 55 1.7 4.3 0.03 0.08 0.07 90 1011.3
20260509142527 54 55 1.7 4.3 0.03 0.08 0.07 90 1011.3
20260509142044 54 55 1.7 4.3 0.04 0.08 0.07 90 1011.2
20260509141521 54 55 0.9 2.6 0.04 0.08 0.07 91 1011.2
20260509141018 53 55 0.9 4.3 0.04 0.08 0.07 90 1011.3
20260509140531 53 55 1.7 4.3 0.04 0.07 0.06 90 1011.2
20260509140029 53 55 0.9 3.5 0.04 0.07 0.06 91 1011.1
20260509135527 53 55 1.7 3.5 0.04 0.07 0.06 91 1011.1
20260509135025 53 55 0.0 3.5 0.05 0.07 0.06 91 1011.2
20260509134544 53 55 1.7 5.2 0.05 0.07 0.06 90 1011.3
20260509134042 53 55 0.9 6.1 0.04 0.06 0.05 90 1011.3
20260509133518 53 55 2.6 7.8 0.05 0.06 0.05 89 1011.3
20260509133034 53 55 4.3 7.8 0.04 0.05 0.04 89 1011.1
20260509132532 53 69 1.7 5.2 0.04 0.05 0.04 89 1011.1
20260509132029 53 69 3.5 6.1 0.03 0.04 0.03 89 1011.1
20260509131527 53 69 3.5 6.1 0.03 0.04 0.03 89 1011.2
20260509131025 53 69 4.3 6.1 0.03 0.04 0.03 88 1011.1
20260509130522 53 69 3.5 5.2 0.02 0.03 0.02 88 1011.3
20260509130020 53 69 2.6 5.2 0.02 0.03 0.02 87 1011.3
20260509125518 53 75 3.5 6.1 0.02 0.03 0.02 87 1011.3
20260509125034 54 75 2.6 6.1 0.01 0.02 0.01 87 1011.3
20260509124553 53 75 4.3 6.1 0.01 0.02 0.01 86 1011.2
20260509124030 54 75 3.5 6.1 0.01 0.02 0.01 85 1011.2
20260509123549 54 75 4.3 6.1 0.00 0.01 0.00 84 1011.2
20260509123026 54 77 4.3 6.1 0.00 0.01 0.00 83 1011.2
20260509122524 55 227 2.6 5.2 0.00 0.01 0.00 82 1011.3
20260509122042 55 250 2.6 6.1 0.00 0.01 0.00 81 1011.2
20260509121520 55 250 3.5 6.1 0.00 0.01 0.00 80 1011.2
20260509121017 55 250 2.6 6.1 0.00 0.01 0.00 80 1011.2
20260509120535 55 250 3.5 6.1 0.00 0.01 0.00 80 1011.3
20260509120033 55 250 2.6 6.1 0.00 0.01 0.00 78 1011.2
20260509115530 55 249 4.3 6.1 0.00 0.01 0.00 78 1011.4
20260509115048 55 247 1.7 5.2 0.00 0.01 0.00 76 1011.4
20260509114546 55 247 3.5 5.2 0.00 0.01 0.00 77 1011.4
20260509114023 55 247 1.7 4.3 0.00 0.01 0.00 76 1011.4
20260509113521 55 247 1.7 4.3 0.00 0.01 0.00 76 1011.4
20260509113018 55 247 0.9 4.3 0.00 0.01 0.00 76 1011.3
20260509112516 54 247 0.9 4.3 0.00 0.01 0.00 77 1011.2
20260509112035 54 247 2.6 4.3 0.00 0.01 0.00 78 1011.2
20260509111532 54 247 1.7 4.3 0.00 0.01 0.00 77 1011.2
20260509111049 54 247 0.0 3.5 0.00 0.01 0.00 76 1011.1
20260509110525 54 247 0.9 3.5 0.00 0.01 0.00 75 1011.0
20260509110022 54 247 0.9 1.7 0.00 0.01 0.00 74 1011.1
20260509105519 54 247 0.0 3.5 0.00 0.01 0.00 73 1011.0
20260509105016 54 247 0.9 5.2 0.00 0.01 0.00 73 1011.0
20260509104530 54 247 1.7 6.1 0.00 0.01 0.00 73 1011.0
20260509104026 54 247 2.6 6.1 0.00 0.01 0.00 72 1010.8
20260509103545 54 247 4.3 7.0 0.00 0.01 0.00 72 1010.7
20260509103021 54 247 3.5 7.0 0.00 0.01 0.00 73 1010.8
20260509102518 54 221 2.6 6.1 0.00 0.01 0.00 74 1010.8
20260509102035 54 221 2.6 6.1 0.00 0.01 0.00 75 1010.8
20260509101554 54 219 2.6 4.3 0.00 0.01 0.00 75 1010.6
20260509101052 54 219 1.7 4.3 0.00 0.01 0.00 75 1010.5
20260509100520 54 219 2.6 4.3 0.00 0.01 0.00 74 1010.4
20260509100018 55 219 0.9 3.5 0.00 0.01 0.00 73 1010.3
20260509095516 54 219 0.9 3.5 0.00 0.01 0.00 72 1010.3
20260509095034 54 219 0.0 1.7 0.00 0.01 0.00 72 1010.2
20260509094532 54 219 0.9 1.7 0.00 0.01 0.00 72 1010.3
20260509094030 55 219 0.0 3.5 0.00 0.01 0.00 71 1010.3
20260509093528 55 219 0.9 4.3 0.00 0.01 0.00 71 1010.3
20260509093047 55 192 0.9 3.5 0.00 0.01 0.00 71 1010.2
20260509092523 55 192 1.7 3.5 0.00 0.01 0.00 71 1010.4
20260509092021 55 192 1.7 2.6 0.00 0.01 0.00 71 1010.2
20260509091518 55 192 0.0 1.7 0.00 0.01 0.00 71 1010.2
20260509091035 55 192 0.9 4.3 0.00 0.01 0.00 71 1010.2
20260509090533 55 192 1.7 4.3 0.00 0.01 0.00 71 1010.2
20260509090031 55 192 1.7 4.3 0.00 0.01 0.00 71 1010.4
20260509085529 55 192 0.9 2.6 0.00 0.01 0.00 72 1010.3
20260509085026 55 192 0.9 3.5 0.00 0.01 0.00 72 1010.4
20260509084524 54 192 0.9 1.7 0.00 0.01 0.00 72 1010.4
20260509084043 54 192 0.9 4.3 0.00 0.01 0.00 71 1010.4
20260509083520 54 192 0.9 4.3 0.00 0.01 0.00 72 1010.5
20260509083018 54 192 1.7 4.3 0.00 0.01 0.00 73 1010.4
20260509082516 54 192 0.9 1.7 0.00 0.01 0.00 72 1010.5
20260509082033 54 192 0.0 0.9 0.00 0.01 0.00 72 1010.5
20260509081551 55 192 0.0 0.9 0.00 0.01 0.00 72 1010.4
20260509081029 54 192 0.0 1.7 0.00 0.01 0.00 72 1010.5
20260509080527 54 192 0.0 2.6 0.00 0.01 0.00 72 1010.6
20260509080042 54 192 0.9 3.5 0.00 0.01 0.00 72 1010.6
20260509075534 54 192 1.7 1.7 0.00 0.01 0.00 72 1010.6
20260509075020 54 192 0.0 0.0 0.00 0.01 0.00 72 1010.6
20260509074518 55 192 0.0 0.0 0.00 0.01 0.00 71 1010.5
20260509074037 55 192 0.0 1.7 0.00 0.01 0.00 70 1010.6
20260509073555 55 192 0.0 4.3 0.00 0.01 0.00 70 1010.6
20260509073056 55 192 0.0 4.3 0.00 0.01 0.00 69 1010.7
20260509072533 55 192 1.7 4.3 0.00 0.01 0.00 68 1010.6
20260509072031 55 192 0.9 4.3 0.00 0.01 0.00 67 1010.5
20260509071528 55 192 1.7 4.3 0.00 0.01 0.00 67 1010.7
20260509071026 55 192 1.7 4.3 0.00 0.01 0.00 67 1010.7
20260509070522 56 192 1.7 5.2 0.00 0.01 0.00 66 1010.7
20260509070020 56 192 1.7 5.2 0.00 0.01 0.00 66 1010.7
20260509065517 56 192 2.6 6.1 0.00 0.01 0.00 65 1010.6
20260509065035 56 192 0.9 7.0 0.00 0.01 0.00 65 1010.6
20260509064532 55 194 3.5 7.0 0.00 0.01 0.00 67 1010.5
20260509064028 55 193 4.3 6.1 0.00 0.01 0.00 67 1010.6
20260509063548 55 193 4.3 6.1 0.00 0.01 0.00 68 1010.6
20260509063024 54 193 2.6 6.1 0.00 0.01 0.00 70 1010.7
20260509062538 55 193 4.3 5.2 0.00 0.01 0.00 69 1010.7
20260509062035 55 193 1.7 2.6 0.00 0.01 0.00 68 1010.7
20260509061529 55 193 0.0 1.7 0.00 0.01 0.00 67 1010.8
20260509061027 55 193 0.9 1.7 0.00 0.01 0.00 66 1010.8
20260509060524 56 193 0.0 0.9 0.00 0.01 0.00 65 1010.9
20260509060023 56 193 0.0 1.7 0.00 0.01 0.00 65 1010.9
20260509055520 56 193 0.9 1.7 0.00 0.01 0.00 65 1011.1
20260509055037 56 193 0.9 4.3 0.00 0.01 0.00 65 1011.0
20260509054555 57 193 0.9 4.3 0.00 0.01 0.00 65 1011.1
20260509054053 56 194 0.9 4.3 0.00 0.01 0.00 66 1011.0
20260509053529 56 194 1.7 6.1 0.00 0.01 0.00 67 1011.0
20260509053028 56 194 1.7 6.1 0.00 0.01 0.00 67 1011.0
20260509052546 56 194 1.7 4.3 0.00 0.01 0.00 66 1011.0
20260509052022 56 194 0.9 4.3 0.00 0.01 0.00 66 1010.9
20260509051520 56 194 0.9 4.3 0.00 0.01 0.00 69 1010.9
20260509051017 56 194 1.7 6.1 0.00 0.01 0.00 70 1011.0
20260509050515 56 194 4.3 6.1 0.00 0.01 0.00 71 1011.1
20260509050058 55 162 2.6 5.2 0.00 0.01 0.00 70 1011.0
20260509045530 55 160 0.0 3.5 0.00 0.01 0.00 72 1010.9